Regional Weather Roundup
Issued by NWS New Orleans/Baton Rouge, LA

Home | Current Version | Previous Version | Graphics & Text | Print | Product List | Glossary On
Versions: 1 2 3 4 5 6 7 8 9 10 11 12 13 14 15 16 17 18 19 20 21 22 23 24 25 26 27 28 29 30 31 32 33 34 35 36 37 38 39 40 41 42 43 44 45 46 47 48 49 50
067
ASUS44 KLIX 200310
RWRLIX
NEW ORLEANS REGIONAL WEATHER ROUNDUP
NATIONAL WEATHER SERVICE NEW ORLEANS LA
1000 PM CDT TUE AUG 19 2014

NOTE: "FAIR" INDICATES FEW OR NO CLOUDS BELOW 12,000 FEET WITH NO
      SIGNIFICANT WEATHER AND/OR OBSTRUCTIONS TO VISIBILITY.
      SKY/WX - SKY CONDITION AND SIGNIFICANT WEATHER.
      TMP - AIR TEMPERATURE.     DP    - DEWPOINT TEMPERATURE.
      RH  - RELATIVE HUMIDITY.   PRES  - PRESSURE.
      HI  - HEAT INDEX.          WCI   - WIND CHILL INDEX.

*  THESE STATIONS ARE NOT NWS OR FAA STATIONS AND ARE NOT UNDER
   NWS QUALITY CONTROL.

LAZ038-040-048-061>063-065>067-069-200400-
SOUTHEAST LOUISIANA

CITY           SKY/WX    TMP DP  RH WIND       PRES   REMARKS
N.O. AUDUBON     N/A     84  77  78 MISG        N/A
N.O. INTL ARPT MOCLDY    82  74  76 CALM      29.99R
N.O. LAKEFRONT PTCLDY    85  74  69 W6        30.00R
N.O. DOWNTOWN*   N/A     86  72  62 S3        30.00R
SLIDELL        PTCLDY    79  74  84 CALM      29.98R
BATON ROUGE    MOCLDY    77  70  79 CALM      29.98R
BOOTHVILLE     PTCLDY    85  75  72 S7        30.01R
BELLE CHASSE   MOCLDY    79  75  87 CALM      29.99R
BOGALUSA*        N/A     79  73  82 S3        30.00R
GALLIANO*      NOT AVBL
NEW ROADS*       N/A     75  73  93 CALM      29.97S
GONZALES*        N/A     76  76 100 CALM      29.98R
HAMMOND*       PTCLDY    79  72  78 CALM      29.99S
HOUMA*         MOCLDY    78  73  84 CALM      29.98R
PORT FOURCHON* CLEAR     86  75  70 CALM      30.00R HX  95

$$

MSZ070-080>082-200400-
SOUTHERN MISSISSIPPI

CITY           SKY/WX    TMP DP  RH WIND       PRES   REMARKS
MCCOMB         MOCLDY    80  73  79 W3        29.99R
GULFPORT       CLEAR     80  74  81 CALM      29.99R
BILOXI         CLEAR     82  71  68 CALM      30.00R
PASCAGOULA     CLEAR     81  76  84 CALM      30.00R

$$

COASTAL OBSERVATIONS
LAKE AND NEARSHORE STATIONS

STATION/POSITION TIME  TEMP    WIND        PRES    WAVE
                       AIR SEA DIR/SP/G            HT/PER
                 (UTC) (F)     (DEG/KT/KT) (MB)    (FT/S)
PASCAGOULA       0300   86     230/  7/ 10 1015.5
WAVELAND YACHT   0300   82     250/  3/  4 1015.1
GRAND ISLE       0300   85 88  210/  3/  4 1016.4
SOUTHWEST PASS   0300   85 89  190/  7/  8 1016.3
NEW CANAL        0300   85 85  260/  5/  7 1016.0
SHELL BEACH      0300   84 82  200/  4/  5 1015.6

OFFSHORE STATIONS

STATION/POSITION TIME  TEMP    WIND        PRES    WAVE
                       AIR SEA DIR/SP/G            HT/PER
                 (UTC) (F)     (DEG/KT/KT) (MB)    (FT/S)
64 S DAUPHIN ISL 0152   86 88  220/  6/  8 1016.6

$$




USA.gov is the U.S. government's official web portal to all federal, state and local government web resources and services.